EW0744 Weather Reports


time (UTC)temp
F
wind
direction
speed
knots
gust
knots
rain 1hr
in
rain 24hr
in
rain mn
in
humidity
%
barometer
mb
20260503200039 71 278 0.9 6.1 0.00 0.00 0.00 34 1033.6
20260503194537 72 196 0.9 7.0 0.00 0.00 0.00 31 1033.9
20260503193042 72 200 3.5 6.1 0.00 0.00 0.00 34 1034.1
20260503191535 71 269 0.9 6.1 0.00 0.00 0.00 34 1034.4
20260503190027 70 202 0.9 5.2 0.00 0.00 0.00 40 1034.7
20260503184527 69 192 0.9 5.2 0.00 0.00 0.00 40 1035.2
20260503183030 68 198 0.9 6.1 0.00 0.00 0.00 41 1035.7
20260503181527 67 229 0.9 4.3 0.00 0.00 0.00 44 1035.9
20260503180014 66 196 1.7 5.2 0.00 0.00 0.00 43 1036.4
20260503174511 66 196 1.7 6.1 0.00 0.00 0.00 43 1036.6
20260503173022 66 205 1.7 3.5 0.00 0.00 0.00 47 1036.7
20260503171503 64 200 0.9 6.1 0.00 0.00 0.00 50 1037.1
20260503170104 63 198 1.7 7.0 0.00 0.00 0.00 51 1037.3
20260503120106 36 196 0.0 0.0 0.00 0.00 0.00 88 1037.8
20260503081529 41 196 0.0 0.0 0.00 0.00 0.00 79 1037.6
20260503071525 44 196 0.0 0.0 0.00 0.00 0.00 76 1037.8
20260503054505 48 196 0.0 0.0 0.00 0.00 0.00 69 1037.6
20260503053006 49 196 0.0 0.0 0.00 0.00 0.00 68 1037.4
20260503051506 50 196 0.0 0.0 0.00 0.00 0.00 67 1037.4
20260503050005 51 196 0.0 0.0 0.00 0.00 0.00 67 1037.3
20260503044504 51 196 0.0 0.9 0.00 0.00 0.00 65 1037.3
20260503043003 52 196 0.0 0.9 0.00 0.00 0.00 64 1037.1
20260503041503 53 196 0.0 0.0 0.00 0.00 0.00 61 1037.1
20260503040002 53 196 0.0 1.7 0.00 0.00 0.00 60 1036.9
20260503034501 54 196 0.0 2.6 0.00 0.00 0.00 59 1036.8
20260503033109 55 195 0.0 1.7 0.00 0.00 0.00 57 1036.7
20260503031600 55 202 0.9 5.2 0.00 0.00 0.00 56 1036.6
20260503024601 56 199 0.0 4.3 0.00 0.00 0.00 51 1036.3
20260503023101 57 204 0.0 4.3 0.00 0.00 0.00 50 1036.1
20260503021558 58 221 0.0 2.6 0.00 0.00 0.00 50 1035.9
20260503020111 59 218 0.0 2.6 0.00 0.00 0.00 47 1035.8
20260503014606 61 218 0.0 2.6 0.00 0.00 0.00 44 1035.5
20260503013115 62 245 0.0 3.5 0.00 0.00 0.00 43 1035.5
20260503011556 63 226 0.0 3.5 0.00 0.00 0.00 39 1035.5
20260503010055 64 210 0.9 4.3 0.00 0.00 0.00 37 1035.4
20260503004604 65 212 0.0 1.7 0.00 0.00 0.00 38 1035.4
20260503003054 65 211 0.0 7.0 0.00 0.00 0.00 36 1035.4
20260503001556 65 277 1.7 7.8 0.00 0.00 0.00 38 1035.4
20260503000057 66 196 0.9 6.1 0.00 0.01 0.00 37 1035.5
20260502234602 67 296 0.9 7.0 0.00 0.01 0.00 38 1035.4
20260502233049 67 194 0.9 7.0 0.00 0.01 0.00 38 1035.5
20260502230048 67 225 1.7 8.7 0.00 0.10 0.00 39 1035.6
20260502224547 67 188 3.5 7.8 0.00 0.10 0.00 38 1035.6
20260502223057 67 190 1.7 7.0 0.00 0.10 0.00 38 1035.7
20260502221545 65 285 0.9 6.1 0.00 0.10 0.00 40 1035.9
20260502220042 66 200 1.7 6.1 0.00 0.10 0.00 38 1036.2
20260502214550 71 199 2.6 7.0 0.00 0.10 0.00 35 1036.5
20260502213039 71 273 0.9 5.2 0.00 0.10 0.00 34 1036.6
20260502211535 70 255 0.9 5.2 0.00 0.10 0.00 35 1036.8
20260502210029 69 106 0.9 5.2 0.00 0.10 0.00 34 1037.2
20260502204536 68 133 0.9 3.5 0.00 0.10 0.00 36 1037.4
20260502203035 69 32 0.9 3.5 0.00 0.10 0.00 36 1037.8
20260502201521 68 12 0.0 3.5 0.00 0.10 0.00 40 1037.9